Regional Weather Roundup
Issued by NWS Newport/Morehead, NC

Current Version | Previous Version | Text Only | Print | Product List | Glossary On
Versions: 1 2 3 4 5 6 7 8 9 10 11 12 13 14 15 16 17 18 19 20 21 22 23 24 25 26 27 28 29 30 31 32 33 34 35 36 37 38 39 40 41 42 43 44 45 46 47 48 49 50
000
ASUS42 KMHX 301013
RWRMHX
WEATHER ROUNDUP FOR EASTERN NORTH CAROLINA
NATIONAL WEATHER SERVICE NEWPORT/MOREHEAD CITY NC
600 AM EDT TUE JUN 30 2015

NOTE: "FAIR" INDICATES FEW OR NO CLOUDS BELOW 12,000 FEET
WITH NO SIGNIFICANT WEATHER AND/OR OBSTRUCTIONS TO VISIBILITY

NCZ015>017-031-032-045>047-102-103-301100-
NORTH COAST

CITY           SKY/WX    TMP DP  RH WIND       PRES   REMARKS
EDENTON        CLEAR     73  70  88 SW5       29.95S
ELIZABETH CITY MOCLDY    74  72  93 SE6       29.95S
KITTY HAWK     SUNNY     72  69  89 CALM      29.95S
MANTEO         CLEAR     76  73  89 SW5       29.97R

$$

NCZ045>047-081-094-103-104-301100-
CENTRAL COAST

CITY           SKY/WX    TMP DP  RH WIND       PRES   REMARKS
FRISCO         CLEAR     77  72  84 W5        29.97S
SWANQUARTER      N/A     77 N/A N/A SW6       29.91S

$$

NCZ095-097-098-100-101-301100-
SOUTHERN COAST

CITY           SKY/WX    TMP DP  RH WIND       PRES   REMARKS
BEAUFORT       CLEAR     78  73  84 SW9       29.97R
CEDAR ISLAND     N/A     75 N/A N/A S5        30.00S
JACKSONVILLE   CLEAR     71  68  90 SW7       29.96R
PINEY ISLAND   SUNNY    N/A N/A N/A SW6       29.96S
WILMINGTON     CLEAR     73  69  87 SW6       29.97R


$$

NCZ011>013-027>030-043-044-078>080-089-090>093-098-301100-
COASTAL PLAIN

CITY           SKY/WX    TMP DP  RH WIND       PRES   REMARKS
AHOSKIE        CLEAR     66  65  97 CALM      29.94F FOG
CLINTON        CLEAR     68  66  94 CALM      29.96R
ELIZABETHTOWN  CLEAR     71  69  93 CALM      29.96R
GOLDSBORO      CLEAR     70  67  90 S1        29.93R
GREENVILLE     CLEAR     70  70 100 S3        29.97R
HAVELOCK       CLEAR     70  68  93 S3        29.97S
KENANSVILLE    CLEAR     67  66  96 CALM      29.97R
KINSTON        CLEAR     69  67  94 S3        29.96R
NEW BERN       CLEAR     71  68  90 S3        29.97S
RICHLANDS      CLEAR     70  64  83 SW3       29.97R
ROCKY MOUNT    CLEAR     68  66  93 CALM      29.94R
WASHINGTON     CLEAR     70  68  93 CALM      29.95S
WHITEVILLE     CLEAR     71  68  90 CALM      29.96R

$$

AMZ130-135-150-152-154-156-158-170-250-252-270-ANZ085-086-088-633-658-670-301100-
MARINE OBSERVATIONS

STATION/POSITION TIME  TEMP    WIND        PRES    WAVE   SWELL
                       AIR SEA DIR/SP/G            HT/PER HT/PER
                 (UTC) (F)     (DEG/KT/KT) (MB)    (FT/S) (FT/S)
CHESAPEAKE LIGHT 1000   76     160/ 13/ 14 1014.9
64 E VA BEACH    0950   75 75  120/  8/  8 1014.4    4/ 8   3/ 8
DUCK             0900   72 73  150/  9/  9 1013.5
2 E DUCK         0911      72                N/A     2/ 9
OREGON INLET     0900   78 75  230/  7/  8 1014.4
13E OREGON INLT  1000      75                N/A     4/ 7
HATTERAS CG      0900   78 81  230/  5/  7 1014.3
DIAMOND BUOY     0950   79 80  250/ 10/ 12 1014.6    4/ 7   3/ 7
CAPE LOOKOUT     1000   78     250/ 10/ 13 1014.6
BEAUFORT LAB     0900   79 81  250/  6/  9 1013.8
30 SE NEW RVR IN 0908   80 80  250/ 14/ 17 1015.1
27 SE WRIGHTSVLE 0900      81  260/ 14/ 17   N/A
5 SE WRIGHTSVLE  0908   79 79  250/ 12/ 16 1014.5
225 S CAPE HAT   0950   78 80  230/ 16/ 17 1016.8    6/ 6   3/ 8
41 SE CHARLESTON 0950   81 83  250/ 14/ 16 1015.0    4/ 7   3/ 7

$$


USA.gov is the U.S. government's official web portal to all federal, state and local government web resources and services.